EW0541 Weather Reports


time (UTC)temp
C
wind
direction
speed
KPH
gust
KPH
rain 1hr
cm
rain 24hr
cm
rain mn
cm
humidity
%
barometer
mb
20260505153018 25 225 3.2 0.0 0.00 0.00 0.00 43 1007.8
20260505151515 25 238 6.4 0.0 0.00 0.00 0.00 42 1008.1
20260505124545 18 166 1.6 0.0 0.00 0.00 0.00 61 1009.3
20260505123040 18 203 1.6 0.0 0.00 0.00 0.00 62 1009.4
20260505121539 17 248 1.6 0.0 0.00 0.00 0.00 64 1009.3
20260505120034 16 124 1.6 0.0 0.00 0.00 0.00 67 1009.3
20260505114531 16 94 0.0 0.0 0.00 0.00 0.00 69 1009.0
20260505113029 14 5 0.0 0.0 0.00 0.00 0.00 74 1008.8
20260505111529 13 5 0.0 0.0 0.00 0.00 0.00 76 1008.7
20260505101538 13 360 0.0 0.0 0.00 0.00 0.00 71 1008.1
20260505100042 14 360 0.0 0.0 0.00 0.00 0.00 70 1007.8
20260505094520 14 360 0.0 0.0 0.00 0.00 0.00 70 1007.9
20260505093021 14 360 0.0 0.0 0.00 0.00 0.00 70 1007.8
20260505091519 14 360 0.0 0.0 0.00 0.00 0.00 70 1007.8
20260505090016 14 360 0.0 0.0 0.00 0.00 0.00 70 1007.7
20260505084514 15 360 0.0 0.0 0.00 0.00 0.00 69 1007.7
20260505083013 15 296 0.0 0.0 0.00 0.00 0.00 69 1007.7
20260505081513 15 296 0.0 0.0 0.00 0.00 0.00 69 1007.6
20260505080011 15 295 0.0 0.0 0.00 0.00 0.00 69 1007.6
20260505074510 15 321 0.0 0.0 0.00 0.00 0.00 68 1007.5
20260505073027 15 314 0.0 0.0 0.00 0.00 0.00 67 1007.4
20260505071506 16 314 0.0 0.0 0.00 0.00 0.00 68 1007.3
20260505070005 16 291 0.0 0.0 0.00 0.00 0.00 65 1007.4
20260505064502 16 291 0.0 0.0 0.00 0.00 0.00 64 1007.5
20260505063002 16 291 0.0 0.0 0.00 0.00 0.00 65 1007.7
20260505061505 16 291 0.0 0.0 0.00 0.00 0.00 65 1007.7
20260505060104 16 275 0.0 0.0 0.00 0.00 0.00 64 1007.8
20260505054600 16 275 0.0 0.0 0.00 0.00 0.00 63 1007.8
20260505053102 16 281 0.0 0.0 0.00 0.00 0.00 63 1007.8
20260505051558 16 281 0.0 0.0 0.00 0.00 0.00 63 1007.7
20260505041552 16 267 0.0 0.0 0.00 0.00 0.00 60 1007.6
20260505040051 16 301 0.0 0.0 0.00 0.00 0.00 59 1007.6
20260505034552 17 292 0.0 0.0 0.00 0.00 0.00 57 1007.6
20260505033052 17 292 0.0 0.0 0.00 0.00 0.00 57 1007.4
20260505031552 17 272 0.0 0.0 0.00 0.00 0.00 56 1007.3
20260505030049 17 288 1.6 0.0 0.00 0.00 0.00 55 1007.5
20260505024553 17 329 0.0 0.0 0.00 0.00 0.00 55 1007.6
20260505023052 17 329 0.0 0.0 0.00 0.00 0.00 54 1007.6
20260505021550 17 32 0.0 0.0 0.00 0.00 0.00 53 1007.5
20260505020050 17 44 0.0 0.0 0.00 0.00 0.00 52 1007.5
20260505014552 18 99 0.0 0.0 0.00 0.00 0.00 50 1007.7
20260505013046 18 130 0.0 0.0 0.00 0.00 0.00 49 1007.7
20260505011548 18 144 0.0 0.0 0.00 0.00 0.00 48 1007.5
20260505010107 18 319 1.6 0.0 0.00 0.00 0.00 47 1007.2
20260505004546 18 137 1.6 0.0 0.00 0.00 0.00 46 1007.2
20260505003047 19 32 1.6 0.0 0.00 0.00 0.00 46 1007.2
20260505001544 19 46 1.6 0.0 0.00 0.00 0.00 45 1007.0
20260505000047 20 173 1.6 0.0 0.00 0.00 0.00 44 1006.9
20260504234543 20 156 1.6 0.0 0.00 0.00 0.00 43 1006.9
20260504233042 21 218 1.6 0.0 0.00 0.00 0.00 42 1006.8
20260504231546 21 185 3.2 0.0 0.00 0.00 0.00 41 1006.8
20260504230045 21 212 3.2 0.0 0.00 0.00 0.00 40 1006.9
20260504224540 22 202 3.2 0.0 0.00 0.00 0.00 40 1007.1
20260504223045 22 202 3.2 0.0 0.00 0.00 0.00 38 1007.0
20260504221555 22 351 1.6 0.0 0.00 0.00 0.00 38 1007.0
20260504220038 22 190 3.2 0.0 0.00 0.00 0.00 38 1007.0
20260504214538 23 292 3.2 0.0 0.00 0.00 0.00 35 1006.9
20260504213052 23 284 4.8 0.0 0.00 0.00 0.00 35 1006.9
20260504211541 23 176 3.2 0.0 0.00 0.00 0.00 34 1006.9
20260504210035 23 213 3.2 0.0 0.00 0.00 0.00 34 1006.9
20260504204534 23 178 3.2 0.0 0.00 0.00 0.00 34 1007.0
20260504203045 23 193 3.2 0.0 0.00 0.00 0.00 37 1007.1
20260504201531 23 164 4.8 0.0 0.00 0.00 0.00 34 1007.2
20260504200029 23 156 3.2 0.0 0.00 0.00 0.00 35 1007.6
20260504194531 23 220 4.8 0.0 0.00 0.00 0.00 35 1007.8
20260504193025 22 199 4.8 0.0 0.00 0.00 0.00 36 1008.0
20260504191534 22 265 4.8 0.0 0.00 0.00 0.00 35 1008.3
20260504190022 22 279 6.4 0.0 0.00 0.00 0.00 35 1008.5
20260504184521 22 250 4.8 0.0 0.00 0.00 0.00 37 1008.6
20260504183017 22 196 6.4 0.0 0.00 0.00 0.00 35 1008.7
20260504181518 22 215 3.2 0.0 0.00 0.00 0.00 35 1008.8
20260504180016 21 271 4.8 0.0 0.00 0.00 0.00 35 1009.2
20260504174511 21 154 6.4 0.0 0.00 0.00 0.00 35 1009.2
20260504173010 21 167 4.8 0.0 0.00 0.00 0.00 36 1009.4
20260504171507 21 260 6.4 0.0 0.00 0.00 0.00 36 1009.8